,,Stat6,,Stat2,,Stat8,,Stat9,,Stat10,,Wind1,,Wind1,
time,status,PA1M_AVG,status,PR1M_SUM,status,RH1M_AVG,status,SR1M_AVG,status,TA1M_AVG,status,W1dAve1m,status,W1sAve1m,
2003-11-07, 00:00:00,VALID,917.123,VALID,0,VALID,99.1775,VALID,0.0339617,VALID,19.1557,VALID,152,VALID,0.515997,
2003-11-07, 00:01:00,VALID,917.121,VALID,0,VALID,99.2233,VALID,0.0339617,VALID,19.1629,VALID,140,VALID,0.480841,
2003-11-07, 00:02:00,VALID,917.092,VALID,0,VALID,99.1686,VALID,0.0509425,VALID,19.1433,VALID,142,VALID,0.883539,
2003-11-07, 00:03:00,VALID,917.091,VALID,0,VALID,99.208,VALID,0.0509425,VALID,19.1435,VALID,189,VALID,0.499645,
2003-11-07, 00:04:00,VALID,917.094,VALID,0,VALID,99.2856,VALID,0.0679233,VALID,19.1599,VALID,162,VALID,0.53995,
2003-11-07, 00:05:00,VALID,917.08,VALID,0,VALID,99.3161,VALID,-0.0339617,VALID,19.1539,VALID,144,VALID,0.491667,
2003-11-07, 00:06:00,VALID,917.062,VALID,0,VALID,99.3263,VALID,-0.0849042,VALID,19.1611,VALID,170,VALID,0.346591,
2003-11-07, 00:07:00,VALID,917.054,VALID,0,VALID,99.3568,VALID,-0.0509425,VALID,19.1648,VALID,171,VALID,0.580124,
2003-11-07, 00:08:00,VALID,917.047,VALID,0,VALID,99.2373,VALID,-0.0679233,VALID,19.1711,VALID,175,VALID,0.522372,
2003-11-07, 00:09:00,VALID,917.022,VALID,0,VALID,99.2424,VALID,-0.0509425,VALID,19.1609,VALID,177,VALID,0.544398,
2003-11-07, 00:10:00,VALID,917.026,VALID,0,VALID,99.2449,VALID,-0.0849042,VALID,19.148,VALID,173,VALID,0.585417,
2003-11-07, 00:11:00,VALID,917.009,VALID,0,VALID,99.1979,VALID,0,VALID,19.1353,VALID,165,VALID,0.588423,
2003-11-07, 00:12:00,VALID,916.997,VALID,0,VALID,99.2055,VALID,-0.0679233,VALID,19.1254,VALID,178,VALID,0.551172,
2003-11-07, 00:13:00,VALID,916.974,VALID,0,VALID,99.1712,VALID,-0.0509425,VALID,19.1189,VALID,206,VALID,0.639509,
2003-11-07, 00:14:00,VALID,916.956,VALID,0,VALID,99.1305,VALID,-0.0339617,VALID,19.1417,VALID,182,VALID,0.606836,
2003-11-07, 00:15:00,VALID,916.946,VALID,0,VALID,99.0656,VALID,-0.0679233,VALID,19.1708,VALID,167,VALID,0.783854,
2003-11-07, 00:16:00,VALID,916.932,VALID,0,VALID,98.9296,VALID,-0.0679233,VALID,19.1673,VALID,159,VALID,0.664426,
2003-11-07, 00:17:00,VALID,916.921,VALID,0,VALID,98.852,VALID,-0.101885,VALID,19.1378,VALID,160,VALID,0.717226,
2003-11-07, 00:18:00,VALID,916.893,VALID,0,VALID,98.8329,VALID,-0.0679233,VALID,19.1383,VALID,145,VALID,0.466751,
2003-11-07, 00:19:00,VALID,916.87,VALID,0,VALID,98.866,VALID,-0.0849042,VALID,19.1226,VALID,161,VALID,0.450284,
2003-11-07, 00:20:00,VALID,916.864,VALID,0,VALID,98.983,VALID,-0.0679233,VALID,19.135,VALID,145,VALID,0.0598958,
2003-11-07, 00:21:00,VALID,916.857,VALID,0,VALID,98.9982,VALID,-0.0339617,VALID,19.1321,VALID,147,VALID,0.501143,
2003-11-07, 00:22:00,VALID,916.844,VALID,0,VALID,98.9753,VALID,-0.0509425,VALID,19.1288,VALID,152,VALID,0.59375,
2003-11-07, 00:23:00,VALID,916.815,VALID,0,VALID,98.9868,VALID,-0.0679233,VALID,19.1124,VALID,166,VALID,0.672238,
2003-11-07, 00:24:00,VALID,916.786,VALID,0,VALID,98.8965,VALID,-0.0169808,VALID,19.0933,VALID,184,VALID,0.393503,
2003-11-07, 00:25:00,VALID,916.796,VALID,0,VALID,98.8889,VALID,-0.0509425,VALID,19.1124,VALID,188,VALID,0.0697798,
2003-11-07, 00:26:00,VALID,916.776,VALID,0,VALID,98.9639,VALID,-0.0509425,VALID,19.145,VALID,167,VALID,0.443537,
2003-11-07, 00:27:00,VALID,916.764,VALID,0,VALID,98.8329,VALID,-0.0509425,VALID,19.1447,VALID,120,VALID,0.740625,
2003-11-07, 00:28:00,VALID,916.732,VALID,0,VALID,98.721,VALID,-0.0679233,VALID,19.1092,VALID,187,VALID,0.740189,
2003-11-07, 00:29:00,VALID,916.713,VALID,0,VALID,98.6981,VALID,-0.0509425,VALID,19.1127,VALID,188,VALID,0.461648,
2003-11-07, 00:30:00,VALID,916.707,VALID,0,VALID,98.707,VALID,-0.0339617,VALID,19.1283,VALID,131,VALID,0.51391,
2003-11-07, 00:31:00,VALID,916.681,VALID,0,VALID,98.6702,VALID,0,VALID,19.1122,VALID,160,VALID,0.653193,
2003-11-07, 00:32:00,VALID,916.664,VALID,0,VALID,98.6473,VALID,-0.0339617,VALID,19.0834,VALID,180,VALID,0.787574,
2003-11-07, 00:33:00,VALID,916.665,VALID,0,VALID,98.5875,VALID,-0.0849042,VALID,19.0739,VALID,172,VALID,0.723028,
2003-11-07, 00:34:00,VALID,916.643,VALID,0,VALID,98.7236,VALID,-0.0169808,VALID,19.0707,VALID,162,VALID,0.414807,
2003-11-07, 00:35:00,VALID,916.635,VALID,0.2,VALID,98.8075,VALID,0,VALID,19.066,VALID,156,VALID,0.775298,
2003-11-07, 00:36:00,VALID,916.609,VALID,0,VALID,98.5315,VALID,0,VALID,19.0531,VALID,146,VALID,0.999628,
2003-11-07, 00:37:00,VALID,916.587,VALID,0,VALID,98.4883,VALID,0.0339617,VALID,19.0499,VALID,185,VALID,0.901972,
2003-11-07, 00:38:00,VALID,916.577,VALID,0,VALID,98.5048,VALID,0,VALID,19.0727,VALID,202,VALID,0.567773,
2003-11-07, 00:39:00,VALID,916.579,VALID,0,VALID,98.4158,VALID,0,VALID,19.0886,VALID,167,VALID,0.593056,
2003-11-07, 00:40:00,VALID,916.56,VALID,0,VALID,98.4425,VALID,0,VALID,19.0819,VALID,175,VALID,0.328488,
2003-11-07, 00:41:00,VALID,916.545,VALID,0,VALID,98.5087,VALID,-0.0169808,VALID,19.0886,VALID,150,VALID,0.696801,
2003-11-07, 00:42:00,VALID,916.538,VALID,0,VALID,98.515,VALID,0,VALID,19.0693,VALID,130,VALID,0.477307,
2003-11-07, 00:43:00,VALID,916.52,VALID,0,VALID,98.4794,VALID,0,VALID,19.0529,VALID,166,VALID,0.772135,
2003-11-07, 00:44:00,VALID,916.504,VALID,0,VALID,98.5265,VALID,-0.0169808,VALID,19.0566,VALID,156,VALID,0.456577,
2003-11-07, 00:45:00,VALID,916.486,VALID,0,VALID,98.5455,VALID,0,VALID,19.0402,VALID,162,VALID,0.560268,
2003-11-07, 00:46:00,VALID,916.465,VALID,0,VALID,98.3751,VALID,0,VALID,19.0213,VALID,184,VALID,1.00877,
2003-11-07, 00:47:00,VALID,916.45,VALID,0,VALID,98.3726,VALID,0,VALID,19.0238,VALID,178,VALID,0.681641,
2003-11-07, 00:48:00,VALID,916.458,VALID,0,VALID,98.3612,VALID,0,VALID,19.0504,VALID,194,VALID,0.570126,
2003-11-07, 00:49:00,VALID,916.44,VALID,0,VALID,98.2747,VALID,-0.0169808,VALID,19.0467,VALID,180,VALID,1.41466,
2003-11-07, 00:50:00,VALID,916.445,VALID,0,VALID,98.1768,VALID,0,VALID,19.0439,VALID,155,VALID,0.706944,
2003-11-07, 00:51:00,VALID,916.458,VALID,0,VALID,98.2798,VALID,0.0169808,VALID,19.0563,VALID,158,VALID,0.369141,
2003-11-07, 00:52:00,VALID,916.453,VALID,0,VALID,98.2849,VALID,0.0169808,VALID,19.04,VALID,116,VALID,0.648438,
2003-11-07, 00:53:00,VALID,916.444,VALID,0,VALID,98.3332,VALID,0,VALID,19.0305,VALID,138,VALID,0.281631,
2003-11-07, 00:54:00,VALID,916.417,VALID,0,VALID,98.4196,VALID,0,VALID,19.0208,VALID,220,VALID,0.451953,
2003-11-07, 00:55:00,VALID,916.417,VALID,0,VALID,98.4158,VALID,0,VALID,19.0404,VALID,197,VALID,0.23274,
2003-11-07, 00:56:00,VALID,916.413,VALID,0,VALID,98.4502,VALID,0.0169808,VALID,19.0536,VALID,197,VALID,0.00334821,
2003-11-07, 00:57:00,VALID,916.39,VALID,0,VALID,98.5939,VALID,0,VALID,19.07,VALID,197,VALID,0.00218023,
2003-11-07, 00:58:00,VALID,916.364,VALID,0,VALID,98.6129,VALID,0,VALID,19.0596,VALID,197,VALID,0.100229,
2003-11-07, 00:59:00,VALID,916.345,VALID,0,VALID,98.557,VALID,0,VALID,19.0238,VALID,173,VALID,0.441602,
2003-11-07, 01:00:00,VALID,916.325,VALID,0,VALID,98.5303,VALID,-0.0169808,VALID,19.0044,VALID,164,VALID,0.35973,
2003-11-07, 01:01:00,VALID,916.323,VALID,0,VALID,98.5532,VALID,0,VALID,18.9952,VALID,177,VALID,0.480741,
2003-11-07, 01:02:00,VALID,916.293,VALID,0,VALID,98.482,VALID,-0.0169808,VALID,18.9982,VALID,191,VALID,0.765067,
2003-11-07, 01:03:00,VALID,916.278,VALID,0,VALID,98.1679,VALID,0,VALID,19.028,VALID,175,VALID,0.776643,
2003-11-07, 01:04:00,VALID,916.261,VALID,0,VALID,98.075,VALID,-0.0169808,VALID,19.0469,VALID,157,VALID,0.46968,
2003-11-07, 01:05:00,VALID,916.242,VALID,0,VALID,98.0585,VALID,0,VALID,19.0504,VALID,160,VALID,0.513719,
2003-11-07, 01:06:00,VALID,916.228,VALID,0,VALID,98.1119,VALID,0,VALID,19.0439,VALID,156,VALID,0.274009,
2003-11-07, 01:07:00,VALID,916.228,VALID,0,VALID,98.1183,VALID,0.0169808,VALID,19.0446,VALID,120,VALID,0.522135,
2003-11-07, 01:08:00,VALID,916.204,VALID,0,VALID,98.0242,VALID,0.0169808,VALID,19.0012,VALID,122,VALID,0.830664,
2003-11-07, 01:09:00,VALID,916.172,VALID,0,VALID,98.0687,VALID,0,VALID,18.9922,VALID,151,VALID,0.505008,
2003-11-07, 01:10:00,VALID,916.141,VALID,0,VALID,98.028,VALID,0,VALID,18.9826,VALID,173,VALID,0.35556,
2003-11-07, 01:11:00,VALID,916.127,VALID,0,VALID,98.042,VALID,0,VALID,18.9821,VALID,174,VALID,0.587426,
2003-11-07, 01:12:00,VALID,916.121,VALID,0,VALID,97.9682,VALID,0,VALID,18.9788,VALID,155,VALID,0.522892,
2003-11-07, 01:13:00,VALID,916.102,VALID,0,VALID,97.8678,VALID,0,VALID,19.0017,VALID,172,VALID,0.782652,
2003-11-07, 01:14:00,VALID,916.093,VALID,0,VALID,97.9148,VALID,0,VALID,19.0308,VALID,131,VALID,0.344322,
2003-11-07, 01:15:00,VALID,916.073,VALID,0,VALID,97.8042,VALID,0.0169808,VALID,19.0305,VALID,201,VALID,0.307173,
2003-11-07, 01:16:00,VALID,916.061,VALID,0,VALID,97.8907,VALID,0,VALID,19.0501,VALID,185,VALID,0.372523,
2003-11-07, 01:17:00,VALID,916.045,VALID,0,VALID,97.5308,VALID,0,VALID,19.0404,VALID,193,VALID,0.778525,
2003-11-07, 01:18:00,VALID,916.034,VALID,0,VALID,97.4621,VALID,0,VALID,19.0501,VALID,151,VALID,0.700581,
2003-11-07, 01:19:00,VALID,916.023,VALID,0.2,VALID,97.4151,VALID,0,VALID,19.0536,VALID,135,VALID,0.594769,
2003-11-07, 01:20:00,VALID,916.005,VALID,0,VALID,97.63,VALID,0.0169808,VALID,19.0571,VALID,128,VALID,0.214748,
2003-11-07, 01:21:00,VALID,915.988,VALID,0,VALID,97.8296,VALID,0,VALID,19.0439,VALID,73,VALID,0.323153,
2003-11-07, 01:22:00,VALID,915.971,VALID,0,VALID,98.028,VALID,0,VALID,19.0347,VALID,59,VALID,0.11756,
2003-11-07, 01:23:00,VALID,915.963,VALID,0,VALID,98.0496,VALID,0,VALID,19.0022,VALID,59,VALID,0.222098,
2003-11-07, 01:24:00,VALID,915.932,VALID,0,VALID,97.8538,VALID,0,VALID,18.9699,VALID,108,VALID,0.606213,
2003-11-07, 01:25:00,VALID,915.911,VALID,0,VALID,97.8131,VALID,0.0339617,VALID,18.9629,VALID,128,VALID,0.78311,
2003-11-07, 01:26:00,VALID,915.882,VALID,0,VALID,97.6084,VALID,0.0169808,VALID,18.9692,VALID,156,VALID,0.700076,
2003-11-07, 01:27:00,VALID,915.869,VALID,0,VALID,97.4787,VALID,0.0339617,VALID,19.0089,VALID,160,VALID,0.547057,
2003-11-07, 01:28:00,VALID,915.852,VALID,0,VALID,97.3502,VALID,0,VALID,19.0315,VALID,137,VALID,0.227539,
2003-11-07, 01:29:00,VALID,915.829,VALID,0,VALID,97.5804,VALID,0,VALID,19.067,VALID,130,VALID,0.0375,
2003-11-07, 01:30:00,VALID,915.834,VALID,0,VALID,97.5791,VALID,0,VALID,19.0767,VALID,134,VALID,0.309338,
2003-11-07, 01:31:00,VALID,915.809,VALID,0,VALID,97.4609,VALID,0,VALID,19.0575,VALID,144,VALID,0.266797,
2003-11-07, 01:32:00,VALID,915.783,VALID,0,VALID,97.5766,VALID,-0.0169808,VALID,19.0412,VALID,145,VALID,0.305618,
2003-11-07, 01:33:00,VALID,915.764,VALID,0,VALID,97.6338,VALID,-0.0509425,VALID,19.0548,VALID,158,VALID,0.461496,
2003-11-07, 01:34:00,VALID,915.74,VALID,0,VALID,97.5372,VALID,0,VALID,19.0449,VALID,174,VALID,0.205669,
2003-11-07, 01:35:00,VALID,915.731,VALID,0,VALID,97.6096,VALID,-0.0169808,VALID,19.0412,VALID,174,VALID,0.168146,
2003-11-07, 01:36:00,VALID,915.706,VALID,0,VALID,97.8207,VALID,-0.0169808,VALID,19.0635,VALID,174,VALID,0,
2003-11-07, 01:37:00,VALID,915.705,VALID,0,VALID,97.6058,VALID,0,VALID,19.0635,VALID,164,VALID,0.27381,
2003-11-07, 01:38:00,VALID,915.684,VALID,0,VALID,97.5664,VALID,0,VALID,19.0441,VALID,163,VALID,0.59375,
2003-11-07, 01:39:00,VALID,915.66,VALID,0,VALID,97.4291,VALID,0,VALID,19.0345,VALID,188,VALID,0.447359,
2003-11-07, 01:40:00,VALID,915.64,VALID,0,VALID,97.2587,VALID,0,VALID,19.0409,VALID,188,VALID,0.333212,
2003-11-07, 01:41:00,VALID,915.625,VALID,0,VALID,96.9649,VALID,0,VALID,19.0898,VALID,213,VALID,0.545058,
2003-11-07, 01:42:00,VALID,915.632,VALID,0,VALID,96.6432,VALID,0,VALID,19.1311,VALID,213,VALID,0.324123,
2003-11-07, 01:43:00,VALID,915.613,VALID,0,VALID,96.5097,VALID,0,VALID,19.1602,VALID,215,VALID,0.181021,
2003-11-07, 01:44:00,VALID,915.612,VALID,0,VALID,96.4029,VALID,0,VALID,19.18,VALID,217,VALID,0.155692,
2003-11-07, 01:45:00,VALID,915.61,VALID,0,VALID,96.7831,VALID,0,VALID,19.1962,VALID,176,VALID,0.103468,
2003-11-07, 01:46:00,VALID,915.582,VALID,0,VALID,97.0107,VALID,0.0169808,VALID,19.1897,VALID,175,VALID,0.546875,
2003-11-07, 01:47:00,VALID,915.571,VALID,0,VALID,96.9192,VALID,0,VALID,19.1512,VALID,178,VALID,0.356286,
2003-11-07, 01:48:00,VALID,915.573,VALID,0,VALID,96.5809,VALID,-0.0169808,VALID,19.135,VALID,193,VALID,0.832485,
2003-11-07, 01:49:00,VALID,915.561,VALID,0,VALID,96.5033,VALID,0,VALID,19.1445,VALID,175,VALID,0.588068,
2003-11-07, 01:50:00,VALID,915.555,VALID,0,VALID,96.7004,VALID,0.0849042,VALID,19.1433,VALID,198,VALID,0.551448,
2003-11-07, 01:51:00,VALID,915.564,VALID,0,VALID,96.8467,VALID,0.101885,VALID,19.1371,VALID,181,VALID,0.433594,
2003-11-07, 01:52:00,VALID,915.546,VALID,0,VALID,97.045,VALID,0.101885,VALID,19.1006,VALID,166,VALID,0.15904,
2003-11-07, 01:53:00,VALID,915.537,VALID,0,VALID,97.2981,VALID,0.118866,VALID,19.081,VALID,166,VALID,0,
2003-11-07, 01:54:00,VALID,915.527,VALID,0,VALID,97.3553,VALID,0.118866,VALID,19.0489,VALID,166,VALID,0,
2003-11-07, 01:55:00,VALID,915.526,VALID,0,VALID,97.6007,VALID,0.118866,VALID,19.0164,VALID,166,VALID,0.115141,
2003-11-07, 01:56:00,VALID,915.524,VALID,0,VALID,97.8334,VALID,0.101885,VALID,19.0072,VALID,167,VALID,0.386991,
2003-11-07, 01:57:00,VALID,915.506,VALID,0,VALID,97.8729,VALID,0.101885,VALID,18.9781,VALID,181,VALID,0.25,
2003-11-07, 01:58:00,VALID,915.498,VALID,0,VALID,98.0115,VALID,0.0849042,VALID,18.956,VALID,195,VALID,0.0367187,
2003-11-07, 01:59:00,VALID,915.494,VALID,0,VALID,98.1412,VALID,0.0849042,VALID,18.9366,VALID,195,VALID,0.00213068,
2003-11-07, 02:00:00,VALID,915.481,VALID,0,VALID,98.2365,VALID,0.0849042,VALID,18.9235,VALID,192,VALID,0.123728,
2003-11-07, 02:01:00,VALID,915.459,VALID,0,VALID,98.2874,VALID,0.101885,VALID,18.9173,VALID,181,VALID,0.61701,
2003-11-07, 02:02:00,VALID,915.452,VALID,0,VALID,98.2327,VALID,0.101885,VALID,18.8935,VALID,183,VALID,0.362233,
2003-11-07, 02:03:00,VALID,915.439,VALID,0,VALID,98.173,VALID,0.101885,VALID,18.9235,VALID,209,VALID,0.370808,
2003-11-07, 02:04:00,VALID,915.444,VALID,0,VALID,98.1691,VALID,0.101885,VALID,18.9495,VALID,172,VALID,0.283736,
2003-11-07, 02:05:00,VALID,915.422,VALID,0,VALID,98.1552,VALID,0.0169808,VALID,18.9634,VALID,172,VALID,0.600109,
2003-11-07, 02:06:00,VALID,915.419,VALID,0,VALID,97.9606,VALID,-0.0169808,VALID,18.9507,VALID,181,VALID,0.551639,
2003-11-07, 02:07:00,VALID,915.409,VALID,0,VALID,97.8563,VALID,0,VALID,18.9771,VALID,168,VALID,0.619792,
2003-11-07, 02:08:00,VALID,915.393,VALID,0,VALID,97.8042,VALID,0,VALID,18.9865,VALID,173,VALID,0.758345,
2003-11-07, 02:09:00,VALID,915.365,VALID,0,VALID,97.7355,VALID,0,VALID,18.9761,VALID,205,VALID,0.465545,
2003-11-07, 02:10:00,VALID,915.377,VALID,0,VALID,97.7419,VALID,0.0169808,VALID,19.0081,VALID,189,VALID,0.362282,
2003-11-07, 02:11:00,VALID,915.378,VALID,0,VALID,97.6351,VALID,0,VALID,19.0409,VALID,183,VALID,0.372768,
2003-11-07, 02:12:00,VALID,915.369,VALID,0,VALID,97.5244,VALID,0,VALID,19.0638,VALID,174,VALID,0.718056,
2003-11-07, 02:13:00,VALID,915.367,VALID,0,VALID,97.3032,VALID,0,VALID,19.0511,VALID,174,VALID,0.709635,
2003-11-07, 02:14:00,VALID,915.369,VALID,0,VALID,97.2345,VALID,-0.0169808,VALID,19.0575,VALID,168,VALID,0.765625,
2003-11-07, 02:15:00,VALID,915.352,VALID,0,VALID,97.2116,VALID,0,VALID,19.0508,VALID,123,VALID,0.402798,
2003-11-07, 02:16:00,VALID,915.343,VALID,0,VALID,97.4036,VALID,-0.0169808,VALID,19.0541,VALID,7,VALID,0.410792,
2003-11-07, 02:17:00,VALID,915.345,VALID,0,VALID,97.555,VALID,0,VALID,19.0312,VALID,7,VALID,0.364769,
2003-11-07, 02:18:00,VALID,915.356,VALID,0,VALID,97.7673,VALID,-0.0169808,VALID,19.0156,VALID,7,VALID,0.1125,
2003-11-07, 02:19:00,VALID,915.33,VALID,0,VALID,97.7877,VALID,-0.0169808,VALID,18.9798,VALID,7,VALID,0,
2003-11-07, 02:20:00,VALID,915.304,VALID,0,VALID,97.8551,VALID,0,VALID,18.9724,VALID,7,VALID,0.0878472,
2003-11-07, 02:21:00,VALID,915.321,VALID,0,VALID,97.7521,VALID,0.0339617,VALID,18.998,VALID,7,VALID,0.15718,
2003-11-07, 02:22:00,VALID,915.292,VALID,0,VALID,97.5918,VALID,0.0169808,VALID,19.0273,VALID,7,VALID,0,
2003-11-07, 02:23:00,VALID,915.29,VALID,0,VALID,97.5944,VALID,0,VALID,19.0789,VALID,7,VALID,0,
2003-11-07, 02:24:00,VALID,915.301,VALID,0,VALID,97.6109,VALID,0,VALID,19.0916,VALID,23,VALID,0.2859,
2003-11-07, 02:25:00,VALID,915.286,VALID,0,VALID,97.6758,VALID,0.0169808,VALID,19.0856,VALID,40,VALID,0.252131,
2003-11-07, 02:26:00,VALID,915.291,VALID,0,VALID,97.7012,VALID,0.0509425,VALID,19.0531,VALID,40,VALID,0.0623264,
2003-11-07, 02:27:00,VALID,915.299,VALID,0,VALID,97.7165,VALID,0.0339617,VALID,19.0499,VALID,15,VALID,0.321114,
2003-11-07, 02:28:00,VALID,915.325,VALID,0,VALID,97.5931,VALID,0.0169808,VALID,19.0598,VALID,11,VALID,0.0802557,
2003-11-07, 02:29:00,VALID,915.322,VALID,0,VALID,97.5105,VALID,0.0339617,VALID,19.0404,VALID,7,VALID,0.235618,
2003-11-07, 02:30:00,VALID,915.33,VALID,0,VALID,97.5702,VALID,0.0169808,VALID,19.0206,VALID,25,VALID,0.773947,
2003-11-07, 02:31:00,VALID,915.306,VALID,0,VALID,97.4647,VALID,0.0339617,VALID,19.0146,VALID,22,VALID,0.994978,
2003-11-07, 02:32:00,VALID,915.292,VALID,0,VALID,97.4469,VALID,0,VALID,19.0372,VALID,6,VALID,0.436228,
2003-11-07, 02:33:00,VALID,915.325,VALID,0,VALID,97.1658,VALID,0.0169808,VALID,19.0819,VALID,63,VALID,0.739955,
2003-11-07, 02:34:00,VALID,915.336,VALID,0,VALID,96.4576,VALID,0,VALID,19.1567,VALID,69,VALID,1.42626,
2003-11-07, 02:35:00,VALID,915.345,VALID,0,VALID,95.3589,VALID,-0.0169808,VALID,19.2707,VALID,37,VALID,1.00996,
2003-11-07, 02:36:00,VALID,915.353,VALID,0,VALID,95.2584,VALID,-0.0849042,VALID,19.3648,VALID,60,VALID,0.638672,
2003-11-07, 02:37:00,VALID,915.354,VALID,0,VALID,95.0715,VALID,-0.101885,VALID,19.3613,VALID,96,VALID,0.600291,
2003-11-07, 02:38:00,VALID,915.364,VALID,0,VALID,94.9227,VALID,-0.0679233,VALID,19.3323,VALID,57,VALID,0.605078,
2003-11-07, 02:39:00,VALID,915.358,VALID,0,VALID,95.2457,VALID,-0.101885,VALID,19.3484,VALID,8,VALID,0.625533,
2003-11-07, 02:40:00,VALID,915.316,VALID,0,VALID,94.9151,VALID,-0.0849042,VALID,19.3812,VALID,353,VALID,1.07184,
2003-11-07, 02:41:00,VALID,915.318,VALID,0,VALID,94.0759,VALID,-0.101885,VALID,19.5586,VALID,5,VALID,1.1981,
2003-11-07, 02:42:00,VALID,915.339,VALID,0,VALID,93.7122,VALID,-0.101885,VALID,19.6878,VALID,46,VALID,0.749023,
2003-11-07, 02:43:00,VALID,915.367,VALID,0,VALID,93.4795,VALID,-0.0849042,VALID,19.7042,VALID,106,VALID,0.886513,
2003-11-07, 02:44:00,VALID,915.355,VALID,0,VALID,94.1153,VALID,-0.101885,VALID,19.6235,VALID,35,VALID,0.230196,
2003-11-07, 02:45:00,VALID,915.37,VALID,0,VALID,94.2857,VALID,-0.0849042,VALID,19.5457,VALID,114,VALID,0.516741,
2003-11-07, 02:46:00,VALID,915.362,VALID,0,VALID,94.498,VALID,-0.0849042,VALID,19.4876,VALID,129,VALID,1.17302,
2003-11-07, 02:47:00,VALID,915.363,VALID,0,VALID,94.9405,VALID,-0.101885,VALID,19.4389,VALID,179,VALID,0.933416,
2003-11-07, 02:48:00,VALID,915.332,VALID,0,VALID,95.205,VALID,-0.0849042,VALID,19.3777,VALID,248,VALID,0.467262,
2003-11-07, 02:49:00,VALID,915.328,VALID,0,VALID,95.5331,VALID,-0.0849042,VALID,19.335,VALID,177,VALID,0.179167,
2003-11-07, 02:50:00,VALID,915.352,VALID,0,VALID,95.837,VALID,-0.0169808,VALID,19.3313,VALID,25,VALID,0.265625,
2003-11-07, 02:51:00,VALID,915.362,VALID,0,VALID,95.9388,VALID,0.0509425,VALID,19.305,VALID,18,VALID,0.0874619,
2003-11-07, 02:52:00,VALID,915.351,VALID,0,VALID,95.9756,VALID,0.0339617,VALID,19.2948,VALID,18,VALID,0.00173611,
2003-11-07, 02:53:00,VALID,915.333,VALID,0,VALID,96.1053,VALID,0.0169808,VALID,19.3181,VALID,18,VALID,0,
2003-11-07, 02:54:00,VALID,915.338,VALID,0,VALID,95.9985,VALID,-0.0169808,VALID,19.2953,VALID,115,VALID,0.583519,
2003-11-07, 02:55:00,VALID,915.315,VALID,0,VALID,95.9349,VALID,0.0169808,VALID,19.2494,VALID,120,VALID,0.287847,
2003-11-07, 02:56:00,VALID,915.308,VALID,0,VALID,96.0875,VALID,0.0169808,VALID,19.2243,VALID,120,VALID,0.158026,
2003-11-07, 02:57:00,VALID,915.297,VALID,0,VALID,96.1486,VALID,0.0509425,VALID,19.2146,VALID,145,VALID,0.327934,
2003-11-07, 02:58:00,VALID,915.285,VALID,0,VALID,95.9438,VALID,0,VALID,19.2272,VALID,207,VALID,0.656944,
2003-11-07, 02:59:00,VALID,915.257,VALID,0,VALID,95.205,VALID,0.0339617,VALID,19.3336,VALID,245,VALID,0.738281,
2003-11-07, 03:00:00,VALID,915.278,VALID,0,VALID,94.9215,VALID,0.0169808,VALID,19.4498,VALID,305,VALID,0.352834,
2003-11-07, 03:01:00,VALID,915.289,VALID,0,VALID,95.2623,VALID,0.0339617,VALID,19.4436,VALID,39,VALID,0.915737,
2003-11-07, 03:02:00,VALID,915.29,VALID,0,VALID,95.5751,VALID,0.0169808,VALID,19.3532,VALID,49,VALID,0.452446,
2003-11-07, 03:03:00,VALID,915.249,VALID,0,VALID,95.8141,VALID,0.0169808,VALID,19.2662,VALID,30,VALID,0.136083,
2003-11-07, 03:04:00,VALID,915.265,VALID,0,VALID,96.0061,VALID,0.0849042,VALID,19.2404,VALID,297,VALID,0.341087,
2003-11-07, 03:05:00,VALID,915.271,VALID,0,VALID,96.0468,VALID,0,VALID,19.2275,VALID,297,VALID,0,
2003-11-07, 03:06:00,VALID,915.282,VALID,0,VALID,96.0799,VALID,0.0339617,VALID,19.2372,VALID,281,VALID,0.350038,
2003-11-07, 03:07:00,VALID,915.271,VALID,0,VALID,95.6615,VALID,0.0339617,VALID,19.2658,VALID,261,VALID,0.55221,
2003-11-07, 03:08:00,VALID,915.295,VALID,0,VALID,95.6374,VALID,0,VALID,19.2946,VALID,278,VALID,0.272135,
2003-11-07, 03:09:00,VALID,915.317,VALID,0,VALID,95.6094,VALID,0.0679233,VALID,19.3271,VALID,278,VALID,0,
2003-11-07, 03:10:00,VALID,915.309,VALID,0,VALID,95.8205,VALID,0.0339617,VALID,19.308,VALID,278,VALID,0.101017,
2003-11-07, 03:11:00,VALID,915.315,VALID,0,VALID,96.0201,VALID,0,VALID,19.2955,VALID,276,VALID,0.0297215,
2003-11-07, 03:12:00,VALID,915.339,VALID,0,VALID,96.2121,VALID,0,VALID,19.266,VALID,275,VALID,0.0948661,
2003-11-07, 03:13:00,VALID,915.332,VALID,0,VALID,96.3215,VALID,0.0169808,VALID,19.2342,VALID,275,VALID,0.0280107,
2003-11-07, 03:14:00,VALID,915.32,VALID,0,VALID,96.4855,VALID,0.0169808,VALID,19.1984,VALID,274,VALID,0.231831,
2003-11-07, 03:15:00,VALID,915.325,VALID,0,VALID,96.3495,VALID,0,VALID,19.1857,VALID,268,VALID,0.509115,
2003-11-07, 03:16:00,VALID,915.337,VALID,0,VALID,96.1765,VALID,0,VALID,19.192,VALID,210,VALID,0.586846,
2003-11-07, 03:17:00,VALID,915.365,VALID,0,VALID,96.2503,VALID,0,VALID,19.1987,VALID,176,VALID,0.601004,
2003-11-07, 03:18:00,VALID,915.366,VALID,0,VALID,96.2299,VALID,0,VALID,19.1791,VALID,163,VALID,0.456283,
2003-11-07, 03:19:00,VALID,915.35,VALID,0,VALID,96.2299,VALID,0.0339617,VALID,19.1564,VALID,200,VALID,0.511914,
2003-11-07, 03:20:00,VALID,915.358,VALID,0,VALID,96.2401,VALID,-0.0339617,VALID,19.1564,VALID,214,VALID,0.201367,
2003-11-07, 03:21:00,VALID,915.373,VALID,0,VALID,96.1269,VALID,0.0169808,VALID,19.1828,VALID,213,VALID,0.0348837,
2003-11-07, 03:22:00,VALID,915.373,VALID,0,VALID,96.0557,VALID,-0.0169808,VALID,19.2086,VALID,213,VALID,0.098544,
2003-11-07, 03:23:00,VALID,915.354,VALID,0,VALID,95.8917,VALID,0,VALID,19.2471,VALID,213,VALID,0.252976,
2003-11-07, 03:24:00,VALID,915.357,VALID,0,VALID,95.5713,VALID,0.0169808,VALID,19.2888,VALID,213,VALID,0.142912,
2003-11-07, 03:25:00,VALID,915.337,VALID,0,VALID,95.6259,VALID,0,VALID,19.3082,VALID,225,VALID,0.0348011,
2003-11-07, 03:26:00,VALID,915.353,VALID,0,VALID,95.9248,VALID,0,VALID,19.2988,VALID,5,VALID,0.28125,
2003-11-07, 03:27:00,VALID,915.346,VALID,0,VALID,96.1511,VALID,0.0339617,VALID,19.2439,VALID,18,VALID,0.178646,
2003-11-07, 03:28:00,VALID,915.347,VALID,0,VALID,96.2274,VALID,-0.0169808,VALID,19.1862,VALID,78,VALID,0.373224,
2003-11-07, 03:29:00,VALID,915.34,VALID,0,VALID,96.4042,VALID,0.0169808,VALID,19.1214,VALID,27,VALID,0.627841,
2003-11-07, 03:30:00,VALID,915.323,VALID,0,VALID,96.6318,VALID,0,VALID,19.0638,VALID,348,VALID,0.946987,
2003-11-07, 03:31:00,VALID,915.349,VALID,0,VALID,96.8454,VALID,0.0169808,VALID,19.0573,VALID,349,VALID,0.339844,
2003-11-07, 03:32:00,VALID,915.373,VALID,0,VALID,96.9408,VALID,-0.0169808,VALID,19.0444,VALID,356,VALID,0.242914,
2003-11-07, 03:33:00,VALID,915.358,VALID,0,VALID,97.0031,VALID,0,VALID,19.0441,VALID,28,VALID,0.799107,
2003-11-07, 03:34:00,VALID,915.358,VALID,0,VALID,97.04,VALID,0,VALID,19.0086,VALID,28,VALID,0.441883,
2003-11-07, 03:35:00,VALID,915.355,VALID,0,VALID,97.1455,VALID,0,VALID,18.9724,VALID,28,VALID,0.400073,
2003-11-07, 03:36:00,VALID,915.375,VALID,0,VALID,97.265,VALID,0,VALID,18.9669,VALID,44,VALID,0.757449,
2003-11-07, 03:37:00,VALID,915.399,VALID,0,VALID,97.087,VALID,0,VALID,18.9214,VALID,84,VALID,0.810865,